{"data":{"norad_id":55962,"intl_designator":"2023-037BA","name":"STARLINK-5906","alt_names":[],"object_type":"PAYLOAD","status":"ACTIVE","operator":null,"country":"US","launch_date":"2023-03-17","launch_site_code":"AFWTR","launch_vehicle":null,"mission":null,"orbit_class":"UNKNOWN","rcs_meters":null,"size_class":null,"mass_kg":null,"dimensions":null,"purposes":["comms"],"wikipedia_slug":null,"has_3d_model":false,"image_url":null,"decayed_at":null,"tle_current":{"epoch":"2026-05-25T02:08:19.320864Z","epoch_age_seconds":57538,"freshness":"FRESH","line1":"1 55962U 23037BA  26145.08911251  .00000236  00000+0  27534-4 0  9992","line2":"2 55962  70.0003  71.9609 0002834 270.0881  89.9954 14.98331231175916","mean_motion":14.98331231,"eccentricity":0.0002834,"inclination_deg":70.0003,"raan_deg":71.9609,"arg_perigee_deg":270.0881,"mean_anomaly_deg":89.9954,"bstar":2.7534e-5,"rev_number":17591,"period_min":96.106920166039,"perigee_km":570.08240059461,"apogee_km":574.02176776752,"semimajor_km":6950.1890841811,"source":"CELESTRAK","updated_at":"2026-05-25T13:38:17.920710Z"}}}